STARLINK-34665, 65089

Orbit data source: Space-Track

STARLINK-34665, 65089 is a payload satellite owned by SpaceX/Seattle (US) in LEO that was launched on Mon, 04 Aug 2025 UTC via an FALCON 9 launch vehicle from the Air Force Eastern Test Range (AFETR). Payload-class satellites include a variety of spacecraft equipped with specific instruments for various scientific and technological missions. These include communications satellites like Starlink; space stations such as the ISS; scientific satellites like the Hubble; Earth observation satellites from companies like Planet Labs, Umbra, and HawkEye 360; GPS; miniature CubeSats for education and research; and military/defense satellites.

Loading next visibility...
Identifier
65089, 2025-167M
Orbit
LEO
Country
Flag of USUS
Related business
Manufacturer
SpaceX/Seattle
Mission
Operational Commercial Communications
Bus & Motor
STARLINK V2MO, Unknown motor
Mass
575 kg wet, ~530 kg dry
Launch date (UTC)
2025-08-04 (11 months ago)
Launch vehicle
FALCON 9
Launch site
Air Force Eastern Test Range (AFETR)
Object type
Payload
Rocket body
Debris
Shape & HBR
Box + 2 Pan, 17.7 m
Radar Cross Section
36.964 m², Large (>1 m²)

Expand to show TLE details & history
Last TLE update: 2 days ago

TLE from 2 days ago
0 STARLINK-34665
1 65089U 25167M   26173.50349329  .00013246  00000-0  45851-3 0  9995
2 65089  53.1592 260.0679 0001689 106.3889 253.7298 15.30202916 49529
Epoch: 2026-06-22T12:05Z
TLE epoch observation values (Epoch: 2026-06-22T12:05:01.820Z)
Latitude
0.00003°
Longitude
168.12187°
Altitude
476.43 km
Speed
7.629 km/s
True Right ascension
17h 20m 16s
True Declination
0° 00' 00"
Sunlit
Object was in full shadow at epoch
Visualization orbit readout
Latitude
Unknown
Longitude
Unknown
Altitude
Unknown
Speed
Unknown
Apparent Right ascension
Unknown
Apparent Declination
Unknown
Sunlit
N/A
Visualization observer readout
Local Sidereal Time
13:52:04
Azimuth
Unknown
Elevation
Unknown
Doppler factor
Unknown
Orbital elements
Apogee altitude
476.62 km
Perigee altitude
474.305 km
Semi-major axis
6,853.6 km
Eccentricity
0.00017
Inclination
53.1592°
RAAN
260.0679°
Arg. of periapsis
106.3889°
True anomaly
253.71122°
Mean anomaly
253.7298°
Eccentric anomaly
253.72051°
Mean motion
3.8253 °/min
Orbital period
94.11 mins
BSTAR
0.00045851
Loading maneuver chart data...
Computing Atmospheric mass density...
Loading historical data...
Loading historical data...
Loading historical data...
Loading historical data...
Loading historical data...
Loading historical data...
Loading historical data...

Documentation

Showing up to 5 results
|